Regional Weather Roundup
Issued by NWS State College, PA

Home | Current Version | Previous Version | Text Only | Print | Product List | Glossary On
Versions: 1 2 3 4 5 6 7 8 9 10 11 12 13 14 15 16 17 18 19 20 21 22 23 24 25 26 27 28 29 30 31 32 33 34 35 36 37 38 39 40 41 42 43 44 45 46 47 48 49 50
000
ASUS41 KCTP 291103
RWRCTP

REGIONAL WEATHER ROUNDUP
NATIONAL WEATHER SERVICE STATE COLLEGE PA
700 AM EDT MON JUN 29 2015

Note: "fair" indicates few or no clouds below 12,000 feet with no
significant weather and/or obstructions to visibility.

* = STATION THAT DOES NOT REPORT PRECIPITATION /E.G. RAIN...SNOW...ETC/
    THUNDER OR FOG.

PAZ002>004-007>009-013>016-020>023-029>032-291200-
WESTERN PENNSYLVANIA

CITY           SKY/WX    TMP DP  RH WIND       PRES   REMARKS
ERIE           PTSUNNY   58  52  80 S7        29.90R
MEADVILLE      MOSUNNY   54  51  90 S3        29.93R
FRANKLIN*      PTSUNNY   52  48  87 S5        29.95R
NEW CASTLE     PTSUNNY   53  53 100 CALM      29.95R
BEAVER COUNTY  SUNNY     55  52  88 CALM      29.95
BUTLER*        MOSUNNY   52  50  93 CALM      29.97R
PITTSBURGH INT PTSUNNY   55  51  86 CALM      29.95R
PITTSBURGH     SUNNY     54  49  83 S7        29.94R
INDIANA*       MOSUNNY   54  54 100 CALM      30.00R
LATROBE        MOSUNNY   54  54 100 CALM      29.97R
WASHINGTON CO* NOT AVBL
$$

PAZ004>006-010>012-017>019-024>028-033>037-041-042-045-046-049>053-291200-
CENTRAL PENNSYLVANIA

CITY           SKY/WX    TMP DP  RH WIND       PRES   REMARKS
BRADFORD       PTSUNNY   53  51  93 W6        29.92R
DUBOIS         MOSUNNY   53  50  89 SW5       29.93R
CLEARFIELD     MOSUNNY   54  51  90 S5        29.94R
JOHNSTOWN      MOSUNNY   55  50  83 SW3       29.98R
ALTOONA        SUNNY     57  52  83 S3        29.97R
STATE COLLEGE  SUNNY     57  52  82 W3        29.93R
WILLIAMSPORT   CLOUDY    61  55  81 W6        29.87R
SELINSGROVE    CLOUDY    63  54  72 CALM      29.91R
FT INDIANTOWN  PTSUNNY   60  54  82 SW7       29.91R
CAPITAL CITY   SUNNY     61  53  75 W5        29.93R
HARRISBURG     MOSUNNY   61  54  77 CALM      29.93R
YORK           SUNNY     62  53  72 CALM      29.93R
$$

PAZ038>040-043-044-047-048-054-055-060>062-067>071-291200-
EASTERN PENNSYLVANIA

CITY           SKY/WX    TMP DP  RH WIND       PRES   REMARKS
SCRANTON       CLOUDY    61  54  77 SW9       29.89R
MOUNT POCONO   CLOUDY    56  52  86 W12       29.89R
ALLENTOWN      MOSUNNY   61  54  77 W9        29.89R
QUAKERTOWN*    CLOUDY    59  55  88 SW3       29.91R
READING        CLOUDY    61  54  77 SW3       29.90R
LANCASTER      MOSUNNY   57  53  86 CALM      29.93R
COATESVILLE    MOSUNNY   57  55  94 SW3       29.94R
POTTSTOWN      CLOUDY    60  55  83 CALM      29.93R
BLUE BELL      MOSUNNY   63  55  77 CALM      29.90S
DOYLESTOWN     PTSUNNY   58  54  86 SW5       29.90R
WILLOW GROVE   NOT AVBL
NORTH PHILA    SUNNY     65  52  62 W9        29.92R
PHILADELPHIA   MOSUNNY   66  57  72 SW10      29.92R
$$


USA.gov is the U.S. government's official web portal to all federal, state and local government web resources and services.